Vorticity
10 10 10 10 10 10 10 9 9 9 9 8 8 7 7 7 7 7 7 7 6 6 6 6 6 6 6 6 6 5 5 4 4 4 3 4 4 4 4 4 5 5 6 7 8 9 9 10 11 12 12 13 13 13 14 14 14 15 15 15 15 16 16 16 16 15 15 15 14 14 14 14 13 13 13 12 12 11 11 11 11 11 11 10 10 10
10 10 10 9 9 10 10 9 9 8 7 7 7 6 6 6 6 7 7 7 6 6 5 6 6 6 6 5 4 4 4 3 3 3 4 4 4 5 5 6 7 7 8 9 10 11 12 13 13 13 14 14 15 15 16 16 16 17 17 18 18 18 19 19 18 18 17 17 16 15 15 14 14 14 13 13 13 13 12 12 12 12 12 12 11 11
9 10 10 9 9 9 8 8 8 8 7 7 6 6 6 6 6 6 6 6 6 6 6 5 5 5 5 4 4 3 3 4 4 5 5 6 6 7 8 9 10 10 11 12 12 13 14 14 15 15 16 16 17 17 18 18 19 19 19 20 20 20 20 20 20 20 19 18 18 17 16 16 15 15 14 14 14 14 14 14 13 13 13 13 13 12
9 9 10 9 9 9 8 7 6 6 7 6 6 6 6 6 6 5 5 5 5 6 6 5 5 5 4 4 4 4 5 5 6 7 7 8 9 10 10 11 12 12 13 13 14 14 15 16 17 17 18 19 19 20 20 20 21 21 21 21 21 21 20 20 20 19 19 19 18 18 18 18 17 17 17 16 16 16 16 16 16 15 15 15 14 14
9 9 8 8 8 8 8 7 6 6 6 6 6 6 6 6 6 5 5 6 6 6 6 5 5 5 5 5 6 6 7 8 9 9 10 10 11 11 12 12 12 12 13 13 14 15 16 17 18 19 20 21 21 22 22 22 21 21 21 21 20 20 19 19 18 18 18 18 18 19 19 20 20 20 20 20 20 19 18 18 18 18 17 17 16 16
8 8 8 7 7 7 7 6 6 6 6 6 6 6 6 6 6 6 6 6 7 6 6 6 7 7 7 8 8 9 10 10 10 10 11 11 11 11 11 12 12 13 13 14 15 16 18 19 20 21 22 22 22 22 22 21 20 20 20 19 19 18 18 18 18 18 18 19 20 21 22 22 23 23 24 23 23 22 21 20 20 19 19 19 19 18
8 8 8 8 8 7 7 7 6 6 6 6 6 7 7 7 7 7 7 7 7 7 8 8 9 9 9 10 10 11 11 11 10 10 10 10 10 10 11 12 13 14 15 16 18 19 21 22 23 23 23 22 22 21 20 19 19 18 18 18 17 18 18 18 19 20 21 22 23 24 24 24 24 24 24 24 24 23 23 22 21 20 20 20 20 20
8 8 8 8 8 7 8 8 7 7 7 7 6 7 8 8 9 9 9 9 9 9 9 10 10 11 12 12 12 11 11 10 10 9 9 10 11 12 13 13 15 16 17 19 21 22 24 25 25 25 24 23 21 20 18 18 17 17 17 17 18 19 20 21 22 23 24 25 25 24 24 23 22 22 22 22 23 23 23 23 23 22 21 20 20 20
8 8 8 8 8 7 7 8 8 8 8 8 7 7 8 9 9 10 10 10 10 11 10 11 11 12 13 12 12 11 10 9 9 10 10 11 12 13 15 15 16 18 19 21 22 24 25 26 26 26 25 24 22 20 18 17 17 17 17 18 20 21 23 24 25 25 25 24 22 21 20 18 18 18 18 19 21 23 24 26 26 26 25 24 22 21
9 8 7 8 8 8 7 8 8 9 9 9 9 9 9 9 9 10 11 11 11 11 11 11 12 12 12 11 11 10 9 9 10 11 12 13 13 14 15 16 17 18 19 21 23 24 26 26 26 26 26 24 23 21 19 18 18 18 19 21 23 25 26 26 25 24 22 20 18 16 14 13 13 13 15 17 19 21 24 26 28 30 30 30 28 27
8 8 8 8 8 9 9 9 8 8 9 9 10 10 11 11 10 10 11 11 11 11 11 12 12 12 11 10 10 10 9 10 10 11 12 13 13 14 14 15 16 18 19 21 23 24 25 25 25 25 25 24 23 22 21 20 20 21 22 24 26 26 26 25 23 20 18 15 13 11 10 10 9 10 11 12 14 16 18 21 25 28 31 33 34 33
7 7 8 8 8 8 9 9 9 9 9 9 10 11 12 12 11 10 10 10 10 10 10 11 11 12 12 10 9 9 10 10 10 10 11 12 13 14 14 15 16 18 19 21 22 23 24 23 23 23 22 22 22 22 22 22 22 24 25 27 27 27 25 22 20 17 14 13 11 9 8 7 7 7 7 8 9 10 11 13 16 20 25 29 33 36
7 7 8 8 8 9 9 9 9 10 10 11 11 11 10 10 10 10 10 11 12 12 11 10 10 11 12 11 11 10 9 10 10 9 10 12 13 13 13 14 15 17 18 19 21 22 21 20 20 20 20 21 21 22 22 23 24 26 27 28 27 26 23 20 18 15 13 12 10 8 7 6 6 6 6 6 6 6 6 7 10 12 16 21 26 31
7 7 8 8 9 9 9 9 10 10 11 11 11 11 10 10 10 10 11 12 13 12 11 10 10 10 10 12 12 11 9 8 8 9 11 13 13 13 12 13 14 15 15 17 18 19 18 18 18 18 19 20 21 22 23 24 25 26 27 27 26 24 22 20 17 15 13 11 10 8 7 7 7 6 6 6 6 6 5 6 7 8 10 13 17 22
7 7 8 9 9 9 10 10 10 11 11 11 10 10 10 10 11 11 12 12 11 10 10 9 9 10 12 13 12 10 8 8 8 8 10 12 12 11 11 11 12 13 13 15 17 17 17 16 16 16 18 20 21 23 23 24 25 25 26 25 24 22 21 19 17 15 13 12 10 9 9 8 8 8 8 7 7 7 7 7 7 7 8 10 13 17
8 8 8 9 9 10 10 10 10 10 10 10 10 10 10 11 12 12 13 12 10 9 9 8 8 8 11 12 12 10 7 7 8 8 8 10 10 10 9 9 9 10 12 14 16 16 16 16 15 16 17 19 21 23 24 24 24 23 23 22 21 20 19 17 16 14 13 12 12 11 11 10 10 10 10 10 9 9 9 9 9 10 10 12 14 17
8 8 9 9 9 10 10 10 10 10 10 10 10 11 12 12 12 12 13 11 10 10 10 10 9 9 7 9 11 11 7 7 7 7 7 9 9 9 8 7 8 9 11 14 15 16 16 15 15 15 17 19 21 23 23 23 22 22 21 20 20 19 18 17 16 15 14 14 13 13 13 13 12 12 12 12 12 12 12 12 13 13 14 15 16 17
8 8 8 9 9 10 9 10 10 10 10 10 11 11 12 13 13 13 13 11 10 9 9 11 13 13 9 8 8 7 6 6 6 5 7 9 9 8 7 7 7 8 10 13 15 16 16 16 15 15 16 18 20 21 22 21 21 21 20 20 20 19 18 17 16 15 15 14 14 13 13 13 13 13 14 14 14 14 14 15 15 16 16 17 17 17
8 8 9 9 9 9 10 10 10 10 11 11 11 11 12 13 13 13 12 11 10 10 8 10 12 13 13 11 8 6 5 5 5 5 6 8 9 9 8 7 7 8 10 13 14 15 16 16 16 16 16 17 19 19 19 20 20 20 21 20 20 19 18 17 16 15 14 13 13 12 12 12 13 13 14 14 15 15 16 16 16 16 17 17 17 16
8 9 9 9 9 9 11 11 11 11 12 11 11 12 13 12 11 11 10 9 9 10 10 11 11 11 10 11 8 5 4 4 5 6 6 7 9 10 9 9 9 9 11 13 14 15 16 17 17 17 17 17 17 17 17 18 18 19 20 20 19 19 17 16 15 13 12 11 11 11 11 11 12 13 13 14 15 16 16 16 16 16 16 15 15 14
8 9 9 9 9 10 11 11 12 12 11 10 11 13 14 12 11 10 9 8 8 9 11 13 13 11 8 9 7 5 3 3 4 5 4 7 9 11 11 11 11 11 12 13 14 14 15 17 18 18 18 17 16 16 16 16 16 17 17 17 17 17 16 15 14 13 12 11 11 11 11 12 12 13 14 15 15 16 16 15 14 14 13 13 13 13
8 9 9 10 10 11 11 11 11 11 10 11 13 13 12 10 10 9 7 8 8 10 11 13 11 9 7 7 6 5 4 5 5 4 2 6 9 12 13 12 12 13 13 13 13 13 14 16 18 19 18 17 16 15 14 14 14 14 14 15 15 15 15 15 14 13 13 13 12 13 13 13 14 14 15 15 15 16 15 14 13 12 11 11 12 12
9 9 9 10 11 11 11 11 11 11 12 13 14 13 11 10 9 8 7 8 9 10 11 10 8 7 8 7 6 5 6 6 5 4 4 5 8 11 13 13 13 14 14 13 12 12 13 16 18 19 19 18 16 15 14 14 14 14 14 14 15 16 16 16 16 16 15 15 15 15 15 15 15 15 14 15 15 15 15 14 13 11 10 10 11 12
9 9 10 10 10 11 11 11 11 11 12 14 13 12 11 10 10 9 8 9 10 10 9 6 7 8 9 7 6 6 7 6 5 4 6 6 7 9 12 13 13 14 14 13 12 11 12 15 17 19 20 18 17 16 16 16 16 16 16 16 17 18 18 19 19 18 18 17 16 15 15 14 14 13 13 14 14 15 15 14 12 11 10 10 11 12
9 9 10 10 11 11 12 12 12 12 12 12 11 10 9 9 9 9 9 11 11 9 7 6 7 7 5 4 5 6 7 6 5 4 4 4 6 9 12 13 13 13 14 13 12 12 12 14 16 18 19 19 18 18 18 19 19 19 19 19 19 20 20 20 20 19 18 17 16 14 13 12 12 12 12 13 14 15 15 14 13 11 10 10 10 12
10 10 10 11 11 12 13 13 13 13 13 12 11 9 8 7 6 7 9 11 10 7 5 7 8 7 4 4 5 6 6 6 5 4 3 3 4 8 12 13 13 13 12 12 12 12 13 14 16 17 18 18 18 19 19 20 20 20 20 20 20 20 20 20 19 18 17 16 14 12 11 10 10 11 12 13 15 16 16 15 14 12 10 10 10 11
10 11 11 11 12 13 13 13 13 13 12 12 10 9 7 6 6 7 10 10 8 6 6 7 6 5 3 5 6 6 5 5 5 4 2 2 4 7 11 12 12 12 11 11 11 12 14 15 17 17 18 17 17 18 19 20 19 19 18 18 18 19 20 19 19 17 15 13 12 10 9 9 10 11 13 14 16 17 18 18 16 14 12 10 9 9
11 11 11 12 12 13 13 13 13 12 11 10 9 8 7 6 7 9 11 8 6 7 9 8 6 3 3 4 4 4 4 5 4 2 1 3 6 9 10 11 12 12 10 9 10 12 15 17 18 18 18 17 17 17 19 19 18 17 15 15 15 16 18 19 19 18 17 14 12 10 9 9 9 11 12 15 17 19 21 21 19 17 14 11 9 8
11 11 11 12 12 13 13 13 13 12 11 9 8 8 8 8 9 10 8 5 6 7 9 8 6 4 3 2 3 4 7 8 5 1 -0 4 8 10 10 11 12 12 9 7 7 10 15 19 19 19 18 17 17 17 18 18 17 15 13 11 11 12 14 17 19 21 21 19 16 13 11 9 9 9 10 13 16 20 22 23 23 21 18 14 11 9
11 11 12 12 13 13 13 13 12 11 10 9 8 8 8 10 10 10 6 6 7 8 7 7 6 5 3 2 2 5 10 10 5 1 1 6 9 10 10 12 13 12 8 5 5 7 12 18 20 21 19 18 17 16 16 16 15 14 13 12 11 10 11 14 17 20 23 22 20 17 14 11 8 7 8 11 14 19 22 24 25 24 22 18 14 11
11 11 12 12 12 13 13 13 12 11 10 9 8 8 7 9 9 9 7 8 8 8 6 6 5 4 3 3 4 6 9 8 5 2 3 8 10 10 10 11 12 11 10 7 5 4 6 13 19 21 21 19 18 16 15 14 14 13 13 14 13 13 12 13 16 19 22 22 21 19 15 12 9 7 6 9 13 17 21 24 25 25 25 22 19 16
11 12 12 12 12 12 13 13 12 11 10 9 8 8 8 8 8 8 8 9 8 8 7 6 5 5 5 6 6 7 7 6 4 3 6 9 10 11 12 11 11 10 10 10 8 6 4 9 14 19 21 20 18 16 14 13 12 12 13 14 14 15 14 15 17 19 21 21 20 19 16 12 9 7 6 8 11 15 19 21 22 24 26 25 23 21
11 12 12 12 12 13 13 12 12 11 10 9 8 8 8 8 8 9 9 9 9 8 7 6 6 6 6 7 8 9 9 8 6 4 6 9 10 10 11 11 10 9 7 9 10 10 9 9 11 15 19 19 18 16 14 13 12 11 11 12 13 13 13 14 16 19 21 22 22 20 18 14 10 7 5 7 10 13 16 18 20 22 24 25 25 23
11 11 11 11 12 13 13 12 12 11 10 9 8 8 7 7 8 9 9 9 9 9 9 8 7 6 6 6 7 9 11 10 7 6 7 9 9 9 9 11 10 7 5 6 8 10 12 12 12 14 16 16 16 16 14 13 12 11 10 9 9 10 11 12 14 17 21 24 24 24 21 16 12 8 5 6 9 12 15 16 18 20 22 23 23 23
10 10 10 11 11 12 12 12 11 11 10 9 9 8 7 8 8 8 9 9 10 10 10 10 10 9 7 7 7 7 10 9 7 6 7 9 8 7 8 10 9 7 5 5 6 7 10 11 13 13 13 14 15 15 13 13 13 12 9 7 6 7 8 9 12 15 19 23 26 26 23 18 13 8 6 6 9 11 14 16 18 20 21 21 20 20
10 10 10 10 11 11 11 11 11 10 10 10 9 8 8 8 8 9 9 9 10 10 10 11 12 12 12 10 9 8 9 7 6 7 8 8 7 6 7 8 7 6 6 5 6 7 8 9 11 12 13 13 13 13 12 13 13 12 9 6 5 5 6 7 9 12 16 20 23 25 24 19 14 9 6 7 9 12 15 17 18 20 20 20 19 19
9 9 10 10 10 10 11 10 10 10 10 9 9 8 8 8 9 9 10 10 10 10 10 11 11 12 13 13 12 11 9 7 8 9 9 7 6 6 6 6 6 6 6 5 5 6 6 7 8 10 11 11 11 11 11 12 12 10 8 7 6 6 6 7 8 9 11 15 18 21 21 18 14 10 7 7 9 12 15 17 19 20 21 20 20 20
9 9 9 10 10 10 10 10 10 10 10 9 8 8 8 9 9 9 10 10 10 10 10 10 11 12 13 13 13 12 10 10 10 9 9 7 6 6 5 4 5 6 8 6 5 5 5 5 6 7 7 8 9 9 9 10 9 8 8 8 7 7 6 7 8 8 8 10 13 16 17 16 14 11 8 8 9 11 14 17 19 20 20 21 21 22
9 9 9 9 9 10 10 10 10 10 10 9 9 8 8 9 10 10 10 10 10 11 11 12 12 13 14 13 13 12 11 11 10 10 8 7 6 5 4 3 4 5 7 7 7 7 7 6 6 6 5 6 6 7 8 8 8 7 8 9 9 8 8 9 10 9 9 9 10 11 13 14 13 12 9 8 9 10 13 16 18 20 21 22 24 26
9 10 10 10 10 10 10 10 10 9 10 9 9 9 9 10 10 11 11 11 11 12 13 13 14 15 16 15 14 13 13 12 11 10 9 8 7 6 5 5 4 4 5 7 8 8 9 8 8 7 7 7 6 6 7 8 9 9 9 10 10 11 12 13 13 13 12 11 10 9 10 12 12 11 10 9 9 10 13 15 17 18 20 22 25 28
10 10 10 10 10 11 12 11 11 10 10 9 9 9 10 10 10 10 11 12 12 13 13 13 14 15 16 17 16 15 14 13 12 11 10 9 8 7 6 6 6 5 5 6 8 9 10 10 9 9 10 10 9 8 8 10 11 12 12 13 13 15 17 18 18 17 16 14 12 10 10 11 11 11 11 10 11 12 14 15 16 17 18 21 24 26
10 11 10 9 10 11 11 11 11 11 11 10 10 10 10 10 10 10 10 11 12 13 13 13 13 14 16 17 17 16 15 14 12 11 10 9 8 7 7 7 7 7 6 7 8 10 11 10 10 10 11 11 10 10 10 11 13 15 17 18 19 19 20 20 20 20 19 18 15 13 11 11 11 12 13 12 13 14 16 16 16 17 18 20 22 24
11 11 11 11 11 11 11 12 12 12 11 11 11 11 11 11 11 11 11 12 12 12 12 13 13 13 14 16 16 16 16 15 14 12 10 9 8 8 8 8 8 8 7 8 8 9 10 10 11 12 12 12 11 11 11 13 16 18 21 22 22 22 22 22 22 22 21 20 18 16 14 13 13 13 13 13 14 15 16 16 16 16 17 19 22 23
11 12 11 12 12 12 12 13 13 12 12 12 12 11 11 11 11 11 11 11 11 11 11 12 12 13 13 14 15 15 15 15 14 13 12 10 9 8 8 9 9 9 9 9 9 8 7 10 11 13 12 12 13 13 15 17 19 21 22 23 23 22 21 22 23 23 23 22 21 19 17 16 15 14 14 13 14 15 16 17 18 18 18 19 21 23
11 12 12 12 12 13 14 14 14 13 13 13 12 11 10 10 10 10 10 10 10 11 11 11 11 12 12 13 13 13 14 14 13 13 12 12 11 10 9 9 10 10 11 12 11 9 8 8 9 10 11 13 14 16 18 19 21 22 22 21 21 20 21 22 24 25 26 24 23 21 19 18 17 16 14 14 15 16 17 18 19 20 19 20 22 22
12 13 13 13 14 15 15 14 14 14 14 13 12 11 10 10 10 10 10 10 10 10 11 11 11 11 11 11 11 11 11 12 12 12 11 11 12 12 12 12 11 10 11 11 12 12 11 10 9 9 10 12 15 17 20 20 21 21 21 20 20 20 21 23 25 27 27 26 24 22 21 19 17 15 13 13 15 16 17 17 19 20 21 21 22 22
13 14 14 14 15 16 16 15 15 14 14 13 12 11 10 9 9 10 10 10 10 10 10 10 10 10 10 9 8 8 8 9 10 10 10 10 10 11 12 13 13 13 12 12 12 12 13 12 11 10 11 13 15 18 20 20 19 19 20 20 20 21 23 25 26 27 27 26 24 22 20 18 16 14 13 13 14 15 16 17 18 20 21 21 22 22
14 15 15 15 16 16 15 15 15 15 14 13 12 11 11 10 9 9 9 9 9 9 9 9 9 9 9 9 8 7 7 7 8 9 9 8 9 10 11 12 13 13 14 14 14 13 13 13 12 12 12 14 17 19 20 19 18 18 19 20 21 22 24 26 27 27 26 24 23 21 19 17 15 14 14 13 13 13 15 18 20 20 20 20 22 22
15 15 15 15 15 16 15 15 15 15 14 13 12 11 11 11 10 10 9 8 8 9 8 8 8 8 8 8 8 8 7 7 7 8 9 8 8 8 10 11 11 12 13 14 15 15 15 14 12 12 13 15 17 19 20 20 19 19 19 19 20 21 23 25 26 26 24 23 21 20 17 15 14 14 14 13 13 14 16 19 21 21 20 20 20 19
15 15 14 15 15 15 15 15 15 14 14 14 13 12 11 11 11 11 10 9 9 8 8 7 7 7 7 7 8 7 7 7 7 8 10 9 8 8 9 9 9 9 11 13 15 15 15 14 12 11 12 14 17 19 21 21 20 19 19 18 18 20 22 23 24 23 21 20 19 18 16 14 14 13 12 12 13 15 17 21 23 22 19 18 17 16
14 14 14 14 14 14 14 14 14 14 14 14 14 14 13 12 12 11 10 10 9 8 7 7 6 6 6 7 7 7 7 7 8 9 9 8 8 8 9 8 8 9 9 11 13 14 14 14 13 12 13 14 16 19 22 22 21 19 17 17 18 19 20 20 20 19 18 17 16 16 14 13 13 13 11 12 13 15 18 23 26 25 19 17 15 14
Height
3055 3054 3053 3052 3051 3050 3049 3048 3047 3046 3045 3044 3043 3042 3041 3040 3039 3038 3037 3036 3035 3034 3032 3031 3030 3029 3027 3026 3025 3023 3022 3020 3019 3018 3016 3015 3013 3011 3009 3007 3005 3003 3001 2999 2997 2995 2993 2991 2989 2987 2985 2983 2981 2980 2978 2976 2975 2974 2972 2971 2970 2969 2968 2966 2965 2964 2963 2962 2962 2961 2960 2960 2960 2959 2959 2959 2959 2959 2959 2959 2960 2960 2960 2960 2960 2960
3052 3051 3050 3050 3049 3048 3046 3045 3044 3043 3042 3042 3041 3040 3039 3038 3037 3035 3034 3033 3032 3031 3030 3028 3027 3026 3025 3023 3022 3020 3019 3018 3016 3014 3013 3011 3009 3007 3005 3003 3001 2999 2996 2994 2992 2990 2987 2985 2983 2981 2979 2977 2975 2974 2972 2970 2969 2967 2966 2965 2963 2962 2961 2960 2959 2958 2957 2956 2955 2954 2954 2953 2952 2952 2952 2952 2952 2952 2952 2952 2952 2953 2953 2953 2954 2954
3050 3049 3048 3047 3046 3045 3044 3042 3041 3040 3040 3039 3038 3037 3036 3035 3034 3033 3032 3030 3029 3028 3027 3025 3024 3023 3022 3020 3019 3018 3016 3014 3012 3010 3009 3007 3005 3002 3000 2998 2996 2994 2991 2989 2987 2984 2982 2980 2978 2975 2973 2971 2969 2967 2965 2964 2962 2960 2959 2958 2956 2955 2954 2953 2951 2950 2950 2949 2948 2947 2946 2946 2945 2945 2945 2945 2945 2945 2945 2945 2945 2945 2946 2946 2946 2947
3047 3046 3045 3045 3043 3042 3041 3040 3039 3038 3037 3036 3035 3034 3033 3032 3031 3030 3029 3028 3026 3025 3024 3023 3022 3020 3019 3018 3016 3015 3013 3010 3009 3006 3005 3002 3000 2998 2996 2994 2991 2989 2987 2984 2982 2980 2977 2975 2972 2970 2968 2965 2963 2961 2960 2958 2956 2954 2953 2951 2950 2948 2947 2946 2945 2944 2943 2942 2941 2940 2939 2939 2938 2938 2938 2938 2937 2937 2937 2937 2938 2938 2938 2939 2939 2940
3045 3044 3043 3042 3041 3040 3038 3037 3036 3035 3034 3033 3032 3031 3030 3029 3028 3027 3026 3025 3024 3022 3021 3020 3019 3017 3016 3014 3012 3010 3009 3006 3005 3002 3000 2998 2996 2994 2991 2989 2987 2985 2982 2980 2977 2975 2972 2970 2967 2965 2962 2960 2958 2955 2954 2952 2950 2948 2946 2945 2943 2942 2940 2939 2938 2937 2936 2935 2934 2933 2932 2932 2931 2931 2931 2930 2930 2930 2930 2930 2930 2930 2931 2931 2932 2932
3042 3041 3040 3039 3038 3037 3036 3035 3033 3032 3031 3030 3029 3028 3027 3025 3025 3024 3023 3022 3021 3020 3018 3017 3016 3014 3012 3010 3008 3006 3004 3002 3000 2998 2996 2994 2992 2989 2987 2985 2983 2980 2978 2975 2973 2970 2968 2965 2962 2960 2957 2955 2952 2950 2948 2946 2944 2942 2940 2939 2938 2936 2935 2933 2932 2931 2930 2928 2927 2926 2926 2925 2925 2924 2924 2923 2923 2923 2923 2923 2923 2923 2923 2924 2924 2925
3040 3039 3037 3036 3035 3034 3033 3032 3030 3029 3028 3027 3026 3025 3024 3023 3022 3021 3020 3019 3018 3016 3015 3013 3012 3010 3008 3006 3004 3002 3000 2998 2996 2994 2992 2990 2988 2985 2983 2981 2979 2976 2974 2971 2969 2966 2963 2960 2958 2955 2952 2950 2947 2945 2943 2940 2939 2937 2935 2934 2932 2930 2929 2928 2926 2925 2924 2923 2921 2921 2920 2919 2919 2918 2917 2917 2916 2916 2916 2916 2916 2916 2916 2916 2917 2918
3037 3036 3035 3034 3032 3031 3030 3029 3027 3026 3025 3024 3023 3022 3021 3020 3019 3018 3017 3015 3014 3013 3011 3010 3008 3006 3004 3002 3000 2998 2995 2994 2992 2990 2988 2986 2984 2982 2979 2977 2974 2972 2969 2966 2964 2961 2958 2955 2953 2950 2948 2945 2943 2940 2938 2936 2934 2932 2930 2929 2927 2925 2924 2922 2921 2920 2919 2917 2916 2915 2915 2914 2914 2913 2912 2911 2911 2910 2910 2910 2909 2909 2909 2910 2910 2910
3034 3033 3032 3030 3029 3028 3027 3025 3024 3023 3022 3020 3020 3019 3018 3017 3016 3015 3014 3012 3010 3009 3007 3006 3004 3002 3000 2998 2996 2994 2991 2989 2988 2986 2984 2982 2980 2977 2975 2973 2970 2968 2965 2962 2959 2956 2954 2951 2948 2945 2943 2940 2938 2935 2933 2931 2929 2927 2925 2924 2922 2920 2919 2917 2916 2915 2914 2913 2912 2911 2910 2910 2909 2908 2907 2907 2906 2905 2905 2904 2904 2903 2903 2903 2903 2903
3031 3030 3029 3027 3026 3025 3024 3022 3021 3020 3019 3018 3016 3015 3014 3013 3012 3011 3010 3009 3007 3005 3003 3002 3000 2998 2996 2994 2992 2990 2988 2985 2984 2982 2980 2978 2976 2973 2971 2968 2966 2963 2961 2958 2955 2952 2949 2946 2944 2941 2938 2936 2934 2931 2929 2927 2925 2923 2921 2919 2918 2916 2914 2913 2912 2910 2910 2909 2908 2907 2906 2905 2905 2904 2903 2902 2901 2900 2900 2899 2898 2898 2897 2897 2896 2896
3028 3027 3026 3025 3023 3022 3021 3020 3018 3017 3016 3015 3013 3012 3011 3010 3008 3007 3005 3005 3003 3002 3000 2998 2996 2995 2992 2990 2987 2986 2984 2982 2980 2978 2977 2975 2972 2970 2967 2964 2962 2960 2957 2954 2951 2948 2945 2942 2939 2937 2934 2932 2929 2927 2925 2923 2920 2919 2917 2915 2913 2912 2910 2909 2908 2907 2906 2905 2904 2903 2902 2901 2900 2900 2899 2898 2897 2896 2895 2894 2893 2892 2892 2891 2890 2890
3025 3024 3023 3022 3021 3019 3018 3017 3015 3014 3013 3012 3010 3009 3007 3006 3005 3003 3002 3000 2999 2998 2996 2995 2993 2991 2989 2986 2984 2982 2980 2979 2977 2975 2973 2971 2968 2965 2963 2960 2958 2955 2953 2950 2947 2945 2942 2939 2936 2933 2930 2928 2925 2923 2920 2919 2916 2915 2913 2911 2910 2908 2907 2905 2904 2903 2902 2901 2900 2900 2899 2898 2897 2895 2895 2894 2892 2891 2890 2889 2888 2887 2887 2886 2885 2885
3023 3022 3020 3019 3018 3017 3015 3014 3013 3011 3010 3009 3007 3006 3004 3003 3001 3000 2998 2997 2995 2994 2993 2991 2989 2987 2985 2983 2980 2978 2977 2975 2974 2972 2970 2968 2965 2962 2959 2956 2954 2952 2950 2946 2943 2940 2938 2935 2932 2930 2927 2925 2922 2919 2917 2915 2913 2911 2909 2908 2906 2905 2903 2902 2901 2900 2899 2898 2897 2896 2895 2894 2893 2891 2890 2890 2888 2887 2886 2885 2884 2883 2882 2881 2880 2880
3020 3019 3018 3017 3015 3014 3012 3011 3010 3008 3007 3005 3004 3003 3001 3000 2998 2997 2995 2993 2992 2991 2989 2987 2986 2984 2982 2979 2977 2975 2973 2972 2970 2969 2967 2964 2962 2959 2956 2953 2950 2949 2946 2944 2940 2937 2935 2932 2929 2926 2924 2921 2919 2916 2914 2911 2910 2908 2906 2905 2903 2902 2900 2899 2898 2897 2895 2895 2893 2892 2891 2890 2889 2887 2886 2885 2884 2883 2882 2881 2880 2879 2878 2877 2876 2875
3018 3017 3015 3014 3013 3011 3010 3008 3007 3005 3004 3003 3001 3000 2998 2996 2995 2994 2992 2990 2989 2987 2986 2985 2983 2981 2979 2977 2974 2972 2969 2968 2967 2966 2964 2961 2959 2956 2954 2950 2947 2945 2943 2941 2937 2934 2931 2929 2926 2924 2921 2918 2916 2913 2911 2908 2906 2905 2903 2901 2900 2899 2897 2896 2895 2893 2892 2891 2890 2888 2887 2886 2885 2883 2882 2881 2880 2879 2878 2877 2875 2875 2874 2873 2872 2871
3015 3014 3012 3011 3010 3008 3007 3005 3004 3002 3001 3000 2998 2997 2995 2993 2992 2990 2989 2987 2985 2984 2983 2981 2980 2979 2977 2975 2972 2970 2967 2965 2963 2962 2961 2959 2956 2954 2951 2948 2945 2942 2940 2938 2935 2932 2929 2926 2923 2920 2918 2915 2913 2910 2908 2905 2903 2901 2900 2898 2897 2895 2894 2893 2891 2890 2889 2887 2886 2885 2883 2882 2880 2879 2878 2877 2875 2874 2873 2873 2872 2871 2870 2869 2868 2867
3013 3011 3010 3008 3007 3006 3004 3002 3001 2999 2998 2996 2995 2994 2992 2990 2989 2987 2985 2984 2982 2981 2979 2978 2977 2975 2974 2972 2969 2967 2965 2962 2960 2959 2958 2956 2954 2951 2948 2945 2943 2940 2938 2935 2932 2929 2926 2924 2921 2918 2915 2913 2910 2908 2905 2903 2900 2898 2896 2895 2893 2892 2890 2889 2888 2886 2885 2883 2882 2881 2880 2878 2876 2875 2874 2873 2871 2870 2869 2868 2868 2867 2866 2865 2864 2863
3010 3008 3007 3005 3004 3003 3001 3000 2998 2996 2995 2994 2992 2990 2989 2988 2986 2984 2983 2981 2980 2978 2976 2975 2974 2972 2971 2969 2966 2964 2962 2960 2957 2955 2954 2953 2951 2949 2946 2943 2940 2938 2935 2933 2930 2926 2924 2921 2918 2915 2913 2910 2907 2905 2902 2900 2898 2895 2894 2892 2890 2889 2887 2885 2884 2883 2881 2880 2879 2877 2876 2874 2873 2871 2870 2869 2868 2866 2865 2865 2864 2863 2862 2861 2860 2859
3007 3005 3004 3002 3001 3000 2998 2997 2995 2993 2992 2990 2989 2988 2986 2985 2983 2982 2980 2978 2977 2975 2974 2972 2970 2969 2968 2966 2964 2961 2959 2956 2954 2952 2951 2950 2948 2946 2943 2940 2937 2935 2933 2930 2927 2924 2921 2918 2915 2913 2910 2907 2905 2902 2899 2897 2895 2893 2891 2889 2887 2885 2884 2882 2881 2880 2878 2877 2875 2874 2872 2871 2869 2868 2866 2865 2864 2863 2862 2861 2860 2859 2858 2857 2856 2855
3004 3003 3001 3000 2998 2997 2995 2994 2992 2990 2989 2987 2986 2985 2984 2982 2981 2979 2978 2976 2974 2973 2971 2970 2968 2966 2965 2963 2961 2959 2956 2953 2950 2948 2947 2946 2945 2943 2940 2937 2934 2932 2930 2927 2925 2921 2918 2915 2912 2910 2908 2905 2902 2899 2897 2894 2892 2890 2888 2886 2885 2883 2881 2880 2878 2876 2875 2873 2872 2870 2869 2867 2866 2864 2863 2861 2860 2859 2858 2857 2856 2856 2855 2854 2853 2851
3001 3000 2998 2997 2995 2994 2992 2991 2990 2988 2986 2985 2983 2982 2981 2980 2978 2977 2975 2974 2972 2970 2969 2967 2965 2964 2962 2960 2958 2956 2954 2951 2948 2945 2944 2943 2942 2940 2938 2935 2932 2929 2927 2925 2922 2919 2916 2913 2910 2907 2905 2902 2900 2897 2894 2892 2890 2887 2885 2884 2882 2880 2878 2877 2875 2873 2872 2870 2869 2867 2865 2864 2862 2861 2859 2858 2857 2856 2855 2854 2853 2852 2851 2850 2849 2848
2999 2997 2995 2994 2992 2991 2990 2988 2987 2985 2984 2982 2980 2979 2978 2977 2975 2974 2973 2971 2970 2968 2966 2965 2963 2961 2960 2957 2955 2953 2951 2948 2945 2943 2941 2939 2938 2936 2935 2932 2929 2926 2924 2922 2919 2916 2913 2910 2908 2905 2903 2900 2897 2895 2892 2889 2887 2885 2883 2881 2879 2877 2875 2874 2872 2870 2869 2867 2865 2864 2862 2861 2859 2857 2856 2855 2853 2852 2851 2850 2850 2849 2847 2846 2845 2844
2996 2994 2993 2991 2990 2988 2987 2985 2984 2982 2981 2980 2978 2977 2975 2974 2973 2971 2970 2969 2967 2965 2964 2962 2961 2959 2957 2955 2953 2950 2948 2945 2943 2940 2938 2936 2935 2934 2932 2929 2926 2923 2922 2920 2917 2914 2911 2908 2906 2903 2900 2898 2895 2892 2890 2887 2885 2882 2880 2878 2876 2874 2873 2871 2869 2867 2866 2864 2862 2861 2859 2858 2856 2854 2853 2851 2850 2849 2848 2847 2846 2845 2844 2843 2841 2840
2993 2992 2990 2989 2987 2986 2984 2983 2981 2980 2978 2977 2975 2974 2973 2972 2970 2969 2968 2966 2964 2963 2961 2960 2958 2956 2954 2953 2950 2948 2946 2943 2940 2937 2935 2933 2932 2931 2929 2926 2923 2920 2919 2917 2915 2911 2909 2906 2904 2901 2898 2896 2893 2890 2887 2885 2882 2880 2877 2875 2873 2871 2870 2868 2866 2865 2863 2861 2860 2858 2856 2855 2853 2851 2850 2848 2847 2846 2845 2844 2842 2841 2840 2839 2837 2836
2991 2989 2988 2986 2985 2983 2982 2980 2979 2977 2976 2975 2973 2972 2970 2969 2968 2966 2965 2963 2962 2960 2959 2957 2956 2954 2952 2950 2948 2946 2943 2941 2938 2935 2933 2930 2929 2928 2926 2924 2921 2918 2916 2914 2912 2909 2906 2904 2901 2899 2896 2893 2891 2888 2885 2882 2880 2877 2875 2873 2871 2869 2867 2865 2864 2862 2860 2858 2856 2855 2853 2851 2850 2848 2846 2845 2844 2842 2841 2840 2839 2838 2836 2835 2834 2832
2988 2987 2985 2984 2982 2981 2979 2978 2976 2975 2973 2972 2971 2969 2968 2967 2965 2964 2963 2961 2959 2958 2956 2955 2953 2952 2950 2949 2947 2944 2942 2939 2936 2934 2931 2929 2927 2925 2924 2921 2919 2916 2913 2912 2910 2907 2903 2900 2898 2896 2894 2891 2888 2886 2883 2880 2878 2875 2873 2871 2869 2867 2865 2863 2861 2860 2858 2856 2854 2852 2850 2849 2847 2845 2843 2842 2840 2839 2838 2836 2835 2834 2832 2831 2830 2828
2986 2985 2983 2982 2980 2979 2977 2976 2974 2973 2971 2970 2968 2967 2966 2964 2963 2962 2960 2959 2957 2955 2954 2952 2950 2949 2948 2946 2945 2943 2940 2937 2934 2931 2930 2927 2925 2923 2921 2918 2915 2913 2910 2909 2907 2905 2901 2898 2895 2893 2891 2889 2886 2884 2881 2879 2876 2874 2871 2869 2867 2865 2863 2861 2860 2858 2855 2854 2852 2850 2848 2846 2844 2842 2841 2839 2837 2836 2834 2833 2831 2830 2828 2827 2825 2824
2984 2982 2981 2980 2978 2977 2975 2974 2972 2971 2969 2968 2966 2965 2963 2962 2960 2959 2958 2956 2955 2953 2951 2950 2948 2946 2945 2944 2942 2941 2938 2935 2932 2929 2927 2925 2923 2921 2918 2916 2913 2910 2907 2905 2904 2903 2900 2896 2893 2890 2888 2886 2884 2881 2879 2877 2875 2872 2870 2868 2866 2864 2862 2860 2858 2856 2854 2851 2850 2848 2845 2844 2842 2840 2838 2836 2835 2833 2831 2830 2828 2826 2825 2823 2822 2820
2982 2980 2979 2977 2976 2975 2973 2972 2970 2969 2967 2966 2964 2963 2961 2960 2958 2957 2955 2954 2952 2951 2949 2947 2946 2944 2942 2941 2940 2939 2937 2934 2930 2927 2924 2922 2920 2918 2916 2913 2910 2907 2904 2901 2900 2900 2899 2896 2892 2888 2885 2883 2881 2879 2877 2875 2872 2870 2868 2866 2865 2863 2860 2858 2856 2854 2851 2850 2847 2845 2843 2841 2840 2838 2836 2834 2832 2830 2828 2827 2825 2823 2821 2820 2818 2817
2980 2978 2977 2975 2974 2972 2971 2970 2968 2967 2965 2964 2962 2961 2959 2958 2956 2955 2953 2951 2950 2948 2947 2945 2944 2942 2940 2938 2937 2935 2934 2931 2928 2925 2922 2920 2917 2915 2913 2910 2907 2905 2902 2898 2895 2894 2895 2894 2891 2887 2883 2880 2878 2876 2874 2872 2870 2868 2866 2864 2862 2860 2859 2856 2854 2851 2849 2847 2845 2843 2841 2839 2837 2835 2833 2831 2830 2828 2826 2824 2822 2820 2818 2816 2815 2814
2979 2977 2975 2974 2972 2970 2969 2968 2966 2965 2963 2962 2960 2959 2957 2955 2954 2953 2951 2949 2948 2946 2945 2943 2941 2940 2938 2936 2934 2932 2930 2928 2925 2922 2920 2917 2915 2913 2911 2908 2905 2902 2900 2896 2892 2889 2888 2888 2888 2886 2882 2878 2875 2874 2872 2870 2867 2865 2863 2861 2860 2858 2856 2854 2851 2849 2847 2845 2843 2840 2839 2837 2835 2833 2831 2829 2827 2825 2823 2821 2819 2817 2815 2814 2812 2811
2977 2975 2974 2972 2970 2969 2967 2966 2964 2963 2961 2960 2958 2957 2955 2954 2952 2950 2949 2947 2945 2944 2942 2941 2939 2938 2936 2934 2932 2930 2928 2925 2923 2920 2918 2915 2913 2910 2909 2906 2903 2900 2898 2895 2891 2888 2884 2882 2882 2881 2880 2876 2873 2871 2869 2867 2865 2862 2860 2858 2856 2854 2852 2850 2848 2846 2844 2841 2840 2838 2836 2834 2832 2830 2828 2826 2824 2822 2820 2819 2817 2815 2813 2811 2809 2808
2975 2974 2972 2970 2969 2967 2966 2964 2963 2961 2959 2958 2956 2955 2953 2951 2950 2948 2947 2945 2944 2942 2940 2939 2937 2935 2933 2931 2930 2928 2926 2923 2920 2917 2915 2913 2910 2908 2906 2904 2901 2898 2895 2892 2890 2886 2883 2879 2877 2876 2875 2873 2871 2869 2866 2864 2862 2860 2857 2855 2853 2851 2849 2847 2845 2842 2840 2838 2836 2835 2833 2831 2830 2828 2826 2824 2822 2820 2818 2816 2815 2813 2811 2809 2807 2806
2973 2972 2970 2969 2967 2965 2964 2962 2960 2959 2957 2956 2954 2953 2951 2950 2948 2946 2945 2943 2941 2940 2938 2937 2935 2933 2930 2929 2927 2925 2923 2921 2918 2915 2913 2910 2908 2905 2903 2901 2899 2895 2893 2890 2887 2884 2880 2878 2875 2872 2870 2869 2868 2866 2864 2861 2858 2856 2854 2852 2849 2847 2845 2844 2841 2840 2837 2835 2834 2832 2830 2829 2827 2825 2823 2821 2819 2817 2815 2814 2812 2810 2809 2807 2805 2804
2971 2970 2968 2966 2965 2963 2962 2960 2958 2957 2955 2954 2952 2950 2949 2948 2946 2945 2943 2941 2940 2938 2936 2935 2933 2931 2929 2927 2924 2922 2920 2918 2916 2913 2910 2908 2905 2903 2900 2899 2896 2893 2890 2887 2885 2882 2878 2875 2873 2870 2867 2865 2864 2863 2861 2859 2856 2853 2851 2849 2847 2845 2842 2841 2839 2837 2835 2833 2831 2829 2827 2825 2824 2822 2820 2819 2816 2815 2813 2811 2810 2808 2807 2805 2804 2802
2969 2967 2965 2964 2963 2961 2960 2958 2956 2955 2953 2952 2950 2949 2947 2946 2944 2943 2941 2940 2938 2936 2934 2932 2931 2929 2927 2925 2923 2920 2918 2916 2914 2911 2908 2906 2903 2900 2898 2896 2893 2890 2887 2884 2881 2879 2876 2873 2871 2868 2865 2862 2860 2859 2858 2856 2854 2851 2849 2846 2844 2842 2840 2839 2837 2835 2832 2830 2828 2827 2825 2823 2821 2820 2818 2816 2814 2812 2810 2809 2808 2806 2805 2804 2802 2800
2966 2965 2963 2962 2960 2959 2958 2956 2955 2953 2952 2950 2949 2947 2945 2944 2943 2941 2939 2938 2936 2934 2933 2931 2929 2927 2925 2923 2920 2918 2916 2914 2911 2909 2906 2903 2901 2898 2895 2893 2891 2888 2885 2881 2878 2875 2873 2870 2867 2865 2863 2860 2858 2855 2853 2852 2851 2849 2847 2845 2842 2840 2838 2836 2835 2833 2830 2828 2826 2824 2822 2820 2819 2817 2815 2813 2811 2810 2808 2807 2805 2804 2803 2801 2800 2799
2964 2963 2961 2960 2958 2957 2956 2955 2953 2952 2950 2949 2947 2945 2944 2942 2940 2939 2938 2936 2934 2933 2931 2930 2928 2926 2924 2921 2919 2916 2914 2911 2909 2906 2904 2901 2898 2896 2893 2890 2888 2886 2883 2880 2876 2873 2870 2867 2865 2862 2860 2857 2855 2853 2851 2849 2847 2845 2844 2842 2840 2838 2836 2834 2832 2830 2828 2826 2824 2822 2820 2818 2816 2814 2812 2811 2809 2807 2806 2804 2803 2802 2800 2799 2798 2797
2962 2960 2959 2958 2956 2955 2954 2952 2951 2950 2948 2946 2945 2943 2942 2940 2939 2937 2936 2934 2933 2931 2930 2928 2926 2925 2922 2920 2917 2915 2912 2910 2907 2905 2902 2899 2897 2894 2891 2888 2886 2883 2881 2878 2875 2872 2869 2865 2863 2860 2857 2854 2852 2850 2848 2846 2845 2843 2840 2839 2837 2836 2834 2832 2830 2828 2826 2824 2822 2820 2818 2816 2814 2812 2810 2808 2807 2805 2804 2802 2801 2800 2798 2797 2795 2795
2960 2959 2957 2956 2955 2953 2952 2950 2949 2947 2946 2944 2943 2941 2940 2938 2937 2935 2934 2933 2931 2929 2927 2925 2924 2922 2921 2919 2916 2913 2910 2908 2905 2903 2901 2898 2895 2892 2890 2887 2884 2881 2879 2876 2873 2870 2867 2864 2861 2858 2856 2853 2850 2847 2845 2844 2842 2840 2838 2835 2833 2832 2831 2830 2828 2826 2824 2821 2819 2817 2815 2813 2811 2810 2808 2806 2805 2803 2801 2800 2799 2797 2796 2795 2793 2792
2958 2957 2956 2954 2953 2951 2950 2948 2947 2945 2944 2942 2940 2939 2937 2936 2935 2933 2932 2930 2929 2927 2925 2923 2921 2920 2918 2916 2914 2912 2909 2906 2904 2901 2899 2896 2894 2891 2888 2885 2882 2880 2877 2874 2872 2869 2866 2863 2860 2857 2854 2851 2848 2845 2843 2841 2840 2838 2836 2833 2830 2828 2827 2826 2825 2823 2821 2819 2817 2815 2812 2810 2809 2807 2805 2804 2803 2801 2800 2799 2797 2795 2794 2793 2792 2790
2957 2955 2954 2952 2951 2949 2948 2946 2945 2943 2942 2940 2939 2937 2935 2934 2932 2931 2930 2928 2926 2925 2923 2921 2919 2917 2915 2914 2912 2910 2907 2905 2902 2900 2897 2894 2892 2889 2886 2883 2881 2878 2875 2872 2870 2868 2865 2862 2859 2856 2853 2850 2847 2844 2841 2839 2838 2836 2834 2831 2828 2825 2823 2822 2821 2820 2818 2815 2814 2812 2810 2808 2806 2805 2803 2802 2801 2800 2799 2797 2796 2795 2793 2791 2790 2789
2955 2954 2952 2950 2949 2947 2946 2945 2943 2942 2940 2939 2937 2935 2934 2932 2930 2929 2927 2926 2924 2922 2920 2919 2917 2915 2913 2912 2910 2908 2906 2903 2900 2898 2895 2892 2890 2887 2884 2882 2879 2876 2873 2870 2868 2865 2863 2861 2858 2855 2852 2849 2846 2843 2840 2837 2835 2833 2831 2829 2826 2823 2820 2818 2817 2816 2815 2813 2811 2809 2808 2806 2804 2802 2801 2800 2799 2798 2797 2796 2795 2793 2792 2790 2789 2788
2953 2951 2950 2949 2947 2945 2944 2943 2941 2940 2939 2937 2935 2933 2931 2930 2928 2926 2925 2923 2922 2920 2918 2916 2915 2913 2911 2910 2908 2906 2904 2902 2899 2896 2894 2891 2888 2885 2883 2880 2877 2875 2872 2869 2866 2863 2860 2859 2856 2854 2851 2848 2845 2842 2839 2836 2833 2831 2829 2827 2824 2822 2819 2816 2814 2813 2811 2810 2809 2807 2805 2804 2802 2800 2799 2798 2797 2796 2795 2794 2793 2792 2791 2789 2788 2787
2951 2950 2948 2947 2945 2944 2942 2941 2940 2938 2937 2935 2933 2931 2930 2928 2926 2925 2923 2921 2920 2918 2916 2915 2912 2910 2909 2907 2905 2904 2902 2900 2898 2895 2892 2890 2887 2884 2881 2879 2876 2873 2870 2867 2865 2862 2859 2856 2854 2852 2850 2847 2844 2841 2838 2835 2831 2829 2827 2825 2822 2820 2817 2815 2813 2811 2809 2807 2806 2805 2803 2802 2800 2798 2797 2796 2795 2794 2794 2793 2792 2790 2789 2788 2787 2785
2949 2947 2946 2945 2943 2942 2940 2939 2937 2936 2935 2933 2931 2930 2928 2926 2924 2923 2921 2919 2917 2916 2914 2912 2910 2909 2907 2905 2903 2901 2900 2898 2896 2894 2891 2888 2885 2882 2880 2877 2874 2872 2869 2866 2863 2861 2858 2856 2853 2850 2848 2845 2842 2840 2837 2834 2830 2827 2824 2822 2820 2818 2815 2813 2811 2809 2807 2805 2804 2803 2802 2800 2799 2797 2795 2794 2793 2792 2792 2791 2790 2789 2788 2786 2785 2785
2947 2945 2944 2943 2941 2940 2938 2937 2935 2934 2933 2931 2930 2928 2926 2924 2922 2920 2919 2917 2915 2914 2912 2910 2909 2907 2905 2903 2901 2899 2897 2895 2893 2891 2889 2887 2884 2881 2879 2876 2873 2870 2868 2865 2862 2860 2857 2855 2852 2850 2847 2843 2840 2837 2835 2832 2829 2825 2823 2820 2818 2815 2814 2811 2810 2808 2806 2804 2802 2801 2800 2799 2797 2795 2794 2792 2791 2791 2790 2790 2789 2788 2786 2785 2784 2783
2945 2944 2942 2940 2939 2938 2936 2935 2934 2932 2930 2929 2928 2926 2924 2922 2920 2918 2916 2915 2913 2912 2910 2908 2906 2905 2903 2901 2899 2897 2895 2893 2891 2889 2887 2885 2882 2880 2877 2875 2872 2869 2866 2864 2861 2859 2856 2854 2851 2849 2846 2842 2839 2835 2832 2830 2827 2824 2821 2819 2816 2814 2812 2810 2808 2806 2805 2803 2801 2800 2799 2797 2796 2794 2792 2791 2790 2789 2789 2788 2788 2787 2786 2784 2783 2782
2943 2942 2940 2939 2937 2936 2935 2933 2931 2930 2929 2927 2925 2924 2922 2920 2919 2917 2915 2913 2911 2910 2908 2906 2904 2903 2901 2899 2897 2895 2893 2891 2889 2887 2885 2882 2880 2878 2875 2873 2870 2867 2865 2862 2860 2857 2855 2852 2850 2847 2845 2841 2837 2833 2830 2828 2825 2823 2820 2818 2815 2813 2810 2808 2807 2805 2804 2802 2801 2800 2798 2797 2795 2793 2791 2790 2788 2788 2787 2787 2786 2785 2785 2784 2782 2782
2942 2940 2939 2937 2935 2934 2932 2931 2930 2928 2926 2925 2923 2922 2920 2919 2917 2915 2913 2911 2910 2908 2906 2904 2902 2900 2899 2897 2895 2893 2891 2889 2887 2885 2883 2880 2878 2875 2873 2870 2868 2865 2863 2860 2858 2855 2853 2850 2848 2846 2843 2840 2836 2832 2828 2825 2823 2821 2819 2817 2815 2812 2810 2808 2806 2805 2803 2802 2800 2799 2797 2796 2795 2793 2791 2789 2787 2786 2786 2785 2785 2784 2784 2783 2782 2781
2940 2939 2937 2935 2934 2932 2930 2929 2927 2926 2924 2923 2921 2920 2918 2916 2915 2913 2911 2909 2908 2906 2904 2902 2900 2899 2897 2895 2893 2891 2889 2887 2885 2883 2881 2878 2876 2873 2871 2868 2865 2863 2860 2858 2855 2853 2851 2848 2846 2844 2842 2840 2835 2831 2828 2825 2822 2820 2818 2816 2814 2812 2810 2808 2806 2804 2803 2801 2800 2799 2797 2795 2794 2792 2790 2789 2787 2785 2785 2785 2784 2784 2783 2782 2781 2781